Location: Winnipauk Village
(41.1295°N, 73.4171°W)
Time: 16:53:47
(UTC+00:00)

Hubble Space Telescope - Visible Passes

Search period start: 24 July 2021 00:00
Search period end: 03 August 2021 00:00
Orbit: 535 x 539 km, 28.5° (Epoch: 23 July)

Date Brightness Start Highest point End Pass type
(mag) Time Alt. Az. Time Alt. Az. Time Alt. Az.
24 Jul 2.9 01:41:16 10° SSW 01:42:05 11° S 01:42:05 11° S visible
25 Jul 2.7 01:29:51 10° SSW 01:31:43 13° S 01:31:56 13° S visible
26 Jul 2.7 01:18:34 10° SSW 01:20:36 13° S 01:21:40 12° SSE visible
27 Jul 2.8 01:07:21 10° SSW 01:09:30 14° S 01:11:17 11° SSE visible
28 Jul 2.8 00:56:13 10° SSW 00:58:23 14° S 01:00:33 10° SSE visible
29 Jul 2.8 00:45:09 10° SW 00:47:16 14° S 00:49:24 10° SSE visible
